Preview of NWS' New Version of Forecast
This preview is not operational and should not be used for support decisions.

Regional Weather Roundup (RWR)

Issued by Gray - Portland, ME (GYX)

                            
000
ASUS41 KGYX 230310
RWRGYX
WEATHER ROUNDUP FOR MAINE AND NEW HAMPSHIRE
NATIONAL WEATHER SERVICE GRAY ME
1100 PM EDT MON JUL 22 2019

MEZ002-005-006-010-012-015-018-020-021-024-026-027-029-230400-
MAINE
  
CITY           SKY/WX    TMP DP  RH WIND       PRES   REMARKS
PORTLAND       RAIN      64  61  90 NE7       29.88R FOG              
SANFORD        RAIN      63  63 100 E8        29.87S FOG              
BAR HARBOR     LGT RAIN  63  61  93 CALM      29.88S                  
WISCASSET      LGT RAIN  64  62  93 CALM      29.89S                  
ROCKLAND       LGT RAIN  63  61  93 E3        29.87F                  
FRYEBURG       CLOUDY    63  61  93 CALM      29.88F                  
LEWISTONAUBURN LGT RAIN  63  60  90 CALM      29.88S                  
AUGUSTA        MOCLDY    64  60  87 CALM      29.88S                  
WATERVILLE     FAIR      61  58  90 CALM      29.86R                  
BANGOR         CLOUDY    62  57  83 CALM      29.88R                  
GREENVILLE       N/A     59  49  69 CALM      29.88S                  
MILLINOCKET    FAIR      63  54  72 W5        29.89R                  
HOULTON        FAIR      57  54  89 CALM      29.86S                  
PRESQUE ISLE   FAIR      56  54  93 CALM      29.87F                  
FRENCHVILLE    FAIR      58  47  66 SW3       29.86S                  
CARIBOU        FAIR      58  50  75 CALM      29.85F                  
$$

NHZ002-005-008-009-011-012-014-230400-
NEW HAMPSHIRE
  
CITY           SKY/WX    TMP DP  RH WIND       PRES   REMARKS
PORTSMOUTH     LGT RAIN  64  63  96 NE8       29.83F FOG              
ROCHESTER      HVY RAIN  63  62  97 NE7       29.85F FOG              
NASHUA         RAIN      65  65 100 N8        29.83F                  
MANCHESTER     RAIN      65  64  97 N9        29.83F FOG              
CONCORD        RAIN      63  62  97 CALM      29.85F FOG              
LACONIA        LGT RAIN  64  63  94 CALM      29.86F                  
PLYMOUTH       RAIN      64  62  95 CALM      29.86F                  
BERLIN         CLOUDY    62  58  86 N3        29.91R                  
WHITEFIELD     CLOUDY    61  59  93 CALM      29.90R                  
JAFFREY        RAIN      62  60  93 VRB3      29.86F FOG              
KEENE          RAIN      63  61  93 SE12      29.82F                  
LEBANON        LGT RAIN  66  62  87 N7        29.87R                  
MT WASHINGTON  LGT RAIN  48  48 100 CALM        N/A  VSB 1/8          
$$

VTZ005-007-008-230400-
VERMONT
  
CITY           SKY/WX    TMP DP  RH WIND       PRES   REMARKS
ST JOHNSBURY     N/A     62  61  96 MISG      29.87S                  
MONTPELIER     CLOUDY    61  61 100 CALM      29.93R                  
BURLINGTON     CLOUDY    67  60  78 CALM      29.87S                  
$$

MAZ007-012-024-CTZ003-RIZ002-NYZ038-NYZ072-230400-
SOUTHERN NEW ENGLAND AND NY
  
CITY           SKY/WX    TMP DP  RH WIND       PRES   REMARKS
BOSTON         RAIN      69  66  90 NE18      29.78F FOG              
WORCESTER      LGT RAIN  63  62  97 NE9G22    29.79F                  
NANTUCKET      CLOUDY    71  71 100 S13       29.77S FOG              
PROVIDENCE     LGT RAIN  71  70  96 NE9       29.76R                  
HARTFORD       RAIN      66  64  93 N7        29.79R                  
ALBANY         DRIZZLE   66  62  87 N8        29.83F                  
NEW YORK CITY  CLOUDY    77  72  84 S7        29.75S                  
$$

ANZ081-ANZ082-ANZ150-NHZ014-MEZ023>029-230400-
COASTAL MARINE OBSERVATIONS
  
STATION/POSITION TIME  TEMP    WIND        PRES    WAVE
                       AIR SEA DIR/SP/G            HT/PER
                 (UTC) (F)     (DEG/KT/KT) (MB)    (FT/S)
ISLE OF SHOALS   0200   65      50/ 15/ 16 1010.1R
JEFFREYS LEDGE   0238      68                N/A     4/ 4
CASHES LEDGE BUO 0250   62 60   10/ 10/ 12 1011.8R   2/ 6
GEORGES BANK BUO 0250   67 63  190/  4/  4 1011.2F   2/ 6
$$

.............KEY..............
   WCI - WIND CHILL
   TC  - TEMPERATURE IN CELSIUS
   VSB - VISIBILITY IN MILES
   HX  - HEAT INDEX
   FAIR- INDICATES FEW OR NO CLOUDS BELOW 12,000 FT, WITH NO 
         SIGNIFICANT WEATHER AND/OR OBSTRUCTIONS TO VISIBILITY.